Time,TemperatureF,DewpointF,PressureIn,WindDirection,WindDirectionDegrees,WindSpeedMPH,WindSpeedGustMPH,Humidity,HourlyPrecipIn,Conditions,Clouds,dailyrainin,SoftwareType,DateUTC
2013-07-17 00:00:00,57.9,42.8,29.57,North,0,0.0,0.0,57,0.00,CLR,,0.00,WeatherDisplay:10.37,2013-07-17 06:00:00,
2013-07-17 00:05:00,57.9,42.8,29.57,NNE,22,0.0,0.0,57,0.00,CLR,,0.00,WeatherDisplay:10.37,2013-07-17 06:05:00,
2013-07-17 00:10:00,57.9,42.8,29.57,NNE,22,0.0,0.0,57,0.00,CLR,,0.00,WeatherDisplay:10.37,2013-07-17 06:10:00,
2013-07-17 00:15:00,57.9,42.8,29.57,North,0,0.0,0.0,57,0.00,CLR,,0.00,WeatherDisplay:10.37,2013-07-17 06:15:00,
2013-07-17 00:20:00,57.9,42.8,29.58,ENE,68,0.0,0.0,57,0.00,CLR,,0.00,WeatherDisplay:10.37,2013-07-17 06:20:00,
2013-07-17 00:25:00,57.9,42.8,29.58,NE,45,0.0,0.0,57,0.00,CLR,,0.00,WeatherDisplay:10.37,2013-07-17 06:25:00,
2013-07-17 00:30:00,57.9,42.8,29.58,East,90,0.0,0.0,57,0.00,CLR,,0.00,WeatherDisplay:10.37,2013-07-17 06:30:00,
2013-07-17 00:35:00,57.9,42.8,29.58,ENE,68,0.0,0.0,57,0.00,CLR,,0.00,WeatherDisplay:10.37,2013-07-17 06:35:00,
2013-07-17 00:40:00,57.9,42.8,29.59,North,0,1.2,0.0,57,0.00,CLR,,0.00,WeatherDisplay:10.37,2013-07-17 06:40:00,
2013-07-17 00:45:00,57.9,42.8,29.59,NNW,338,0.0,0.0,57,0.00,CLR,,0.00,WeatherDisplay:10.37,2013-07-17 06:45:00,
2013-07-17 00:50:00,57.9,42.8,29.59,ENE,68,0.0,0.0,57,0.00,CLR,,0.00,WeatherDisplay:10.37,2013-07-17 06:50:00,
2013-07-17 00:55:00,57.9,42.8,29.59,ENE,68,0.0,0.0,57,0.00,CLR,,0.00,WeatherDisplay:10.37,2013-07-17 06:55:00,
2013-07-17 01:00:00,57.9,42.8,29.57,ENE,68,0.0,0.0,57,0.00,CLR,,0.00,WeatherDisplay:10.37,2013-07-17 07:00:00,
2013-07-17 01:05:00,57.9,42.8,29.57,North,0,0.0,0.0,57,0.00,CLR,,0.00,WeatherDisplay:10.37,2013-07-17 07:05:00,
2013-07-17 01:10:00,57.9,42.8,29.57,North,0,0.0,0.0,57,0.00,CLR,,0.00,WeatherDisplay:10.37,2013-07-17 07:10:00,
2013-07-17 01:15:00,57.9,42.8,29.57,SSW,202,0.0,0.0,57,0.00,CLR,,0.00,WeatherDisplay:10.37,2013-07-17 07:15:00,
2013-07-17 01:20:00,57.9,42.8,29.58,North,0,0.0,0.0,57,0.00,CLR,,0.00,WeatherDisplay:10.37,2013-07-17 07:20:00,
2013-07-17 01:25:00,57.9,42.8,29.58,NE,45,0.0,0.0,57,0.00,CLR,,0.00,WeatherDisplay:10.37,2013-07-17 07:25:00,
2013-07-17 01:30:00,57.9,42.8,29.58,ENE,68,0.0,0.0,57,0.00,CLR,,0.00,WeatherDisplay:10.37,2013-07-17 07:30:00,
2013-07-17 01:35:00,57.9,42.8,29.58,ENE,68,0.0,0.0,57,0.00,CLR,,0.00,WeatherDisplay:10.37,2013-07-17 07:35:00,
2013-07-17 01:40:00,57.9,42.8,29.56,ENE,68,0.0,0.0,57,0.00,CLR,,0.00,WeatherDisplay:10.37,2013-07-17 07:40:00,
2013-07-17 01:45:00,57.9,42.8,29.56,South,180,2.3,2.3,57,0.03,RA,,0.03,WeatherDisplay:10.37,2013-07-17 07:45:00,
2013-07-17 01:50:00,57.9,42.8,29.56,WSW,248,4.6,4.6,57,0.03,RA,,0.03,WeatherDisplay:10.37,2013-07-17 07:50:00,
2013-07-17 01:55:00,57.9,42.8,29.56,WNW,292,0.0,1.0,57,0.03,CLR,,0.03,WeatherDisplay:10.37,2013-07-17 07:55:00,
2013-07-17 02:00:00,57.9,42.8,29.55,ENE,68,0.0,0.3,57,0.03,CLR,,0.03,WeatherDisplay:10.37,2013-07-17 08:00:00,
2013-07-17 02:05:00,57.9,42.8,29.55,WNW,292,0.0,0.0,57,0.03,CLR,,0.03,WeatherDisplay:10.37,2013-07-17 08:05:00,
2013-07-17 02:10:00,57.9,42.8,29.55,East,90,0.0,0.0,57,0.03,CLR,,0.03,WeatherDisplay:10.37,2013-07-17 08:10:00,
2013-07-17 02:15:00,57.9,42.8,29.55,NNE,22,1.2,1.2,57,0.03,CLR,,0.03,WeatherDisplay:10.37,2013-07-17 08:15:00,
2013-07-17 02:20:00,57.9,42.8,29.56,NNW,338,0.0,0.3,57,0.03,CLR,,0.03,WeatherDisplay:10.37,2013-07-17 08:20:00,
2013-07-17 02:25:00,57.9,42.8,29.56,NNW,338,0.0,0.0,57,0.03,CLR,,0.03,WeatherDisplay:10.37,2013-07-17 08:25:00,
2013-07-17 02:30:00,57.9,42.8,29.56,NNW,338,0.0,0.0,57,0.03,CLR,,0.03,WeatherDisplay:10.37,2013-07-17 08:30:00,
2013-07-17 02:35:00,57.9,42.8,29.56,NE,45,0.0,0.0,57,0.03,CLR,,0.03,WeatherDisplay:10.37,2013-07-17 08:35:00,
2013-07-17 02:40:00,57.9,42.8,29.56,NE,45,0.0,0.0,57,0.03,CLR,,0.03,WeatherDisplay:10.37,2013-07-17 08:40:00,
2013-07-17 02:45:00,57.9,42.8,29.56,ENE,68,0.0,0.0,57,0.00,CLR,,0.03,WeatherDisplay:10.37,2013-07-17 08:45:00,
2013-07-17 02:50:00,57.9,42.8,29.56,ENE,68,0.0,0.0,57,0.00,CLR,,0.03,WeatherDisplay:10.37,2013-07-17 08:50:00,
2013-07-17 02:55:00,57.9,42.8,29.56,ENE,68,0.0,0.6,57,0.00,CLR,,0.03,WeatherDisplay:10.37,2013-07-17 08:55:00,
2013-07-17 03:00:00,57.9,42.8,29.57,ENE,68,0.0,0.5,57,0.00,CLR,,0.03,WeatherDisplay:10.37,2013-07-17 09:00:00,
2013-07-17 03:05:00,57.9,42.8,29.57,ENE,68,0.0,0.2,57,0.00,CLR,,0.03,WeatherDisplay:10.37,2013-07-17 09:05:00,
2013-07-17 03:10:00,57.9,42.8,29.57,NNE,22,0.0,0.0,57,0.00,CLR,,0.03,WeatherDisplay:10.37,2013-07-17 09:10:00,
2013-07-17 03:15:00,57.9,42.8,29.57,East,90,0.0,0.0,57,0.00,CLR,,0.03,WeatherDisplay:10.37,2013-07-17 09:15:00,
2013-07-17 03:20:00,57.9,42.8,29.56,ENE,68,0.0,0.0,57,0.00,CLR,,0.03,WeatherDisplay:10.37,2013-07-17 09:20:00,
2013-07-17 03:25:00,57.9,42.8,29.56,ESE,112,0.0,0.0,57,0.00,CLR,,0.03,WeatherDisplay:10.37,2013-07-17 09:25:00,
2013-07-17 03:30:00,57.9,42.8,29.56,North,0,0.0,0.0,57,0.00,CLR,,0.03,WeatherDisplay:10.37,2013-07-17 09:30:00,
2013-07-17 03:35:00,57.9,42.8,29.56,NNW,338,0.0,0.0,57,0.00,CLR,,0.03,WeatherDisplay:10.37,2013-07-17 09:35:00,
2013-07-17 03:40:00,57.9,42.8,29.55,North,0,0.0,0.0,57,0.00,CLR,,0.03,WeatherDisplay:10.37,2013-07-17 09:40:00,
2013-07-17 03:45:00,57.9,42.8,29.55,NE,45,0.0,0.0,57,0.00,CLR,,0.03,WeatherDisplay:10.37,2013-07-17 09:45:00,
2013-07-17 03:50:00,57.9,42.8,29.55,East,90,0.0,0.0,57,0.00,CLR,,0.03,WeatherDisplay:10.37,2013-07-17 09:50:00,
2013-07-17 03:55:00,57.9,42.8,29.55,ESE,112,0.0,0.0,57,0.00,CLR,,0.03,WeatherDisplay:10.37,2013-07-17 09:55:00,
2013-07-17 04:00:00,57.9,42.8,29.55,North,0,0.0,0.0,57,0.00,CLR,,0.03,WeatherDisplay:10.37,2013-07-17 10:00:00,
2013-07-17 04:05:00,57.9,42.8,29.55,NE,45,0.0,0.0,57,0.00,CLR,,0.03,WeatherDisplay:10.37,2013-07-17 10:05:00,
2013-07-17 04:10:00,57.9,42.8,29.55,ESE,112,0.0,0.0,57,0.00,CLR,,0.03,WeatherDisplay:10.37,2013-07-17 10:10:00,
2013-07-17 04:15:00,57.9,42.8,29.55,SE,135,0.0,0.0,57,0.00,CLR,,0.03,WeatherDisplay:10.37,2013-07-17 10:15:00,
2013-07-17 04:20:00,57.9,42.8,29.56,WSW,248,0.0,0.0,57,0.00,CLR,,0.03,WeatherDisplay:10.37,2013-07-17 10:20:00,
2013-07-17 04:25:00,57.9,42.8,29.56,ENE,68,0.0,0.0,57,0.00,CLR,,0.03,WeatherDisplay:10.37,2013-07-17 10:25:00,
2013-07-17 04:30:00,57.9,42.8,29.56,NE,45,0.0,0.0,57,0.00,CLR,,0.03,WeatherDisplay:10.37,2013-07-17 10:30:00,
2013-07-17 04:35:00,57.9,42.8,29.56,NE,45,0.0,0.0,57,0.00,CLR,,0.03,WeatherDisplay:10.37,2013-07-17 10:35:00,
2013-07-17 04:40:00,57.9,42.8,29.55,East,90,0.0,0.0,57,0.00,CLR,,0.03,WeatherDisplay:10.37,2013-07-17 10:40:00,
2013-07-17 04:45:00,57.9,42.8,29.55,North,0,0.0,0.0,57,0.00,CLR,,0.03,WeatherDisplay:10.37,2013-07-17 10:45:00,
2013-07-17 04:50:00,57.9,42.8,29.55,SSW,202,0.0,0.0,57,0.00,CLR,,0.03,WeatherDisplay:10.37,2013-07-17 10:50:00,
2013-07-17 04:56:00,57.9,42.8,29.55,SSE,158,0.0,0.0,57,0.00,CLR,,0.03,WeatherDisplay:10.37,2013-07-17 10:56:00,
2013-07-17 05:01:00,57.9,42.8,29.56,North,0,0.0,0.0,57,0.00,CLR,,0.03,WeatherDisplay:10.37,2013-07-17 11:01:00,
2013-07-17 05:06:00,57.9,42.8,29.56,North,0,0.0,0.0,57,0.00,CLR,,0.03,WeatherDisplay:10.37,2013-07-17 11:06:00,
2013-07-17 05:11:00,57.9,42.8,29.56,East,90,0.0,0.0,57,0.00,CLR,,0.03,WeatherDisplay:10.37,2013-07-17 11:11:00,
2013-07-17 05:16:00,57.9,42.8,29.56,East,90,0.0,0.0,57,0.00,CLR,,0.03,WeatherDisplay:10.37,2013-07-17 11:16:00,
2013-07-17 05:21:00,57.9,42.8,29.56,NE,45,0.0,0.0,57,0.00,CLR,,0.03,WeatherDisplay:10.37,2013-07-17 11:21:00,
2013-07-17 05:26:00,57.9,42.8,29.56,North,0,0.0,0.0,57,0.00,CLR,,0.03,WeatherDisplay:10.37,2013-07-17 11:26:00,
2013-07-17 05:31:00,57.9,42.8,29.56,ENE,68,0.0,0.0,57,0.00,CLR,,0.03,WeatherDisplay:10.37,2013-07-17 11:31:00,
2013-07-17 05:36:00,57.9,42.8,29.56,NE,45,0.0,0.0,57,0.00,CLR,,0.03,WeatherDisplay:10.37,2013-07-17 11:36:00,
2013-07-17 05:41:00,57.9,42.8,29.57,South,180,0.0,0.0,57,0.00,CLR,,0.03,WeatherDisplay:10.37,2013-07-17 11:41:00,
2013-07-17 05:46:00,57.9,42.8,29.57,East,90,0.0,0.0,57,0.00,CLR,,0.03,WeatherDisplay:10.37,2013-07-17 11:46:00,
2013-07-17 05:51:00,57.9,42.8,29.57,North,0,0.0,0.0,57,0.00,CLR,,0.03,WeatherDisplay:10.37,2013-07-17 11:51:00,
2013-07-17 05:56:00,57.9,42.8,29.57,NNE,22,0.0,0.0,57,0.00,CLR,,0.03,WeatherDisplay:10.37,2013-07-17 11:56:00,
2013-07-17 06:01:00,57.9,42.8,29.57,North,0,0.0,0.0,57,0.00,CLR,,0.03,WeatherDisplay:10.37,2013-07-17 12:01:00,
2013-07-17 06:06:00,57.9,42.8,29.57,NNE,22,0.0,0.0,57,0.00,CLR,,0.03,WeatherDisplay:10.37,2013-07-17 12:06:00,
2013-07-17 06:11:00,57.9,42.8,29.57,NNE,22,0.0,0.0,57,0.00,CLR,,0.03,WeatherDisplay:10.37,2013-07-17 12:11:00,
2013-07-17 06:16:00,57.9,42.8,29.57,NE,45,0.0,0.2,57,0.00,CLR,,0.03,WeatherDisplay:10.37,2013-07-17 12:16:00,
2013-07-17 06:21:00,57.9,42.8,29.57,SE,135,0.0,0.0,57,0.00,CLR,,0.03,WeatherDisplay:10.37,2013-07-17 12:21:00,
2013-07-17 06:26:00,57.9,42.8,29.57,SE,135,0.0,0.0,57,0.00,CLR,,0.03,WeatherDisplay:10.37,2013-07-17 12:26:00,
2013-07-17 06:31:00,57.9,42.8,29.57,SSE,158,0.0,0.0,57,0.00,CLR,,0.03,WeatherDisplay:10.37,2013-07-17 12:31:00,
2013-07-17 06:36:00,57.9,42.8,29.57,SE,135,0.0,0.0,57,0.00,CLR,,0.03,WeatherDisplay:10.37,2013-07-17 12:36:00,
2013-07-17 06:41:00,57.9,42.8,29.56,West,270,0.0,0.0,57,0.00,CLR,,0.03,WeatherDisplay:10.37,2013-07-17 12:41:00,
2013-07-17 06:46:00,57.9,42.8,29.56,WNW,292,0.0,0.0,57,0.00,CLR,,0.03,WeatherDisplay:10.37,2013-07-17 12:46:00,
2013-07-17 06:51:00,57.9,42.8,29.56,SE,135,0.0,0.0,57,0.00,CLR,,0.03,WeatherDisplay:10.37,2013-07-17 12:51:00,
2013-07-17 06:56:00,57.9,42.8,29.56,East,90,0.0,0.0,57,0.00,CLR,,0.03,WeatherDisplay:10.37,2013-07-17 12:56:00,
2013-07-17 07:01:00,57.9,42.8,29.57,South,180,0.0,0.0,57,0.00,CLR,,0.03,WeatherDisplay:10.37,2013-07-17 13:01:00,
2013-07-17 07:06:00,57.9,42.8,29.57,WNW,292,0.0,0.0,57,0.00,CLR,,0.03,WeatherDisplay:10.37,2013-07-17 13:06:00,
2013-07-17 07:11:00,57.9,42.8,29.57,NNW,338,0.0,0.0,57,0.00,CLR,,0.03,WeatherDisplay:10.37,2013-07-17 13:11:00,
2013-07-17 07:16:00,57.9,42.8,29.57,NNW,338,0.0,0.0,57,0.00,CLR,,0.03,WeatherDisplay:10.37,2013-07-17 13:16:00,
2013-07-17 07:21:00,57.9,42.8,29.58,NNW,338,0.0,0.0,57,0.00,CLR,,0.03,WeatherDisplay:10.37,2013-07-17 13:21:00,
2013-07-17 07:26:00,57.9,42.8,29.58,NNW,338,0.0,0.0,57,0.00,CLR,,0.03,WeatherDisplay:10.37,2013-07-17 13:26:00,
2013-07-17 07:31:00,57.9,42.8,29.58,NNW,338,0.0,0.0,57,0.00,CLR,,0.03,WeatherDisplay:10.37,2013-07-17 13:31:00,
2013-07-17 07:36:00,57.9,42.8,29.58,NNW,338,0.0,0.0,57,0.00,CLR,,0.03,WeatherDisplay:10.37,2013-07-17 13:36:00,
2013-07-17 07:41:00,57.9,42.8,29.58,NNW,338,0.0,0.0,57,0.00,CLR,,0.03,WeatherDisplay:10.37,2013-07-17 13:41:00,
2013-07-17 07:46:00,57.9,42.8,29.58,NNW,338,0.0,0.0,57,0.00,CLR,,0.03,WeatherDisplay:10.37,2013-07-17 13:46:00,
2013-07-17 07:51:00,57.9,42.8,29.58,NW,315,0.0,0.0,57,0.00,CLR,,0.03,WeatherDisplay:10.37,2013-07-17 13:51:00,
2013-07-17 07:56:00,57.9,42.8,29.58,NNW,338,0.0,0.0,57,0.00,CLR,,0.03,WeatherDisplay:10.37,2013-07-17 13:56:00,
2013-07-17 08:01:00,57.9,42.8,29.56,NW,315,0.0,0.0,57,0.00,CLR,,0.03,WeatherDisplay:10.37,2013-07-17 14:01:00,
2013-07-17 08:06:00,57.9,42.8,29.56,ENE,68,0.0,0.0,57,0.00,CLR,,0.03,WeatherDisplay:10.37,2013-07-17 14:06:00,
2013-07-17 08:11:00,57.9,42.8,29.56,West,270,0.0,0.0,57,0.00,CLR,,0.03,WeatherDisplay:10.37,2013-07-17 14:11:00,
2013-07-17 08:16:00,57.9,42.8,29.56,WSW,248,0.0,0.0,57,0.00,CLR,,0.03,WeatherDisplay:10.37,2013-07-17 14:16:00,
2013-07-17 08:21:00,57.9,42.8,29.61,WSW,248,0.0,0.0,57,0.00,CLR,,0.03,WeatherDisplay:10.37,2013-07-17 14:21:00,
2013-07-17 08:26:00,57.9,42.8,29.61,SW,225,0.0,0.0,57,0.00,CLR,,0.03,WeatherDisplay:10.37,2013-07-17 14:26:00,
2013-07-17 08:31:00,57.9,42.8,29.61,WSW,248,0.0,0.0,57,0.00,CLR,,0.03,WeatherDisplay:10.37,2013-07-17 14:31:00,
2013-07-17 08:36:00,57.9,42.8,29.61,WNW,292,0.0,0.0,57,0.00,CLR,,0.03,WeatherDisplay:10.37,2013-07-17 14:36:00,
2013-07-17 08:41:00,57.9,42.8,29.60,WSW,248,0.0,0.0,57,0.00,CLR,,0.03,WeatherDisplay:10.37,2013-07-17 14:41:00,
2013-07-17 08:46:00,57.9,42.8,29.60,WSW,248,0.0,0.0,57,0.00,CLR,,0.03,WeatherDisplay:10.37,2013-07-17 14:46:00,
2013-07-17 08:51:00,57.9,42.8,29.60,WSW,248,0.0,0.0,57,0.00,CLR,,0.03,WeatherDisplay:10.37,2013-07-17 14:51:00,
2013-07-17 08:56:00,57.9,42.8,29.60,West,270,0.0,0.0,57,0.00,CLR,,0.03,WeatherDisplay:10.37,2013-07-17 14:56:00,
2013-07-17 09:01:00,57.9,42.8,29.61,SW,225,0.0,0.0,57,0.00,CLR,,0.03,WeatherDisplay:10.37,2013-07-17 15:01:00,
2013-07-17 09:06:00,57.9,42.8,29.61,WSW,248,0.0,0.0,57,0.00,CLR,,0.03,WeatherDisplay:10.37,2013-07-17 15:06:00,
2013-07-17 09:11:00,57.9,42.8,29.61,WSW,248,0.0,0.0,57,0.00,CLR,,0.03,WeatherDisplay:10.37,2013-07-17 15:11:00,
2013-07-17 09:16:00,57.9,42.8,29.61,WSW,248,0.0,0.0,57,0.00,CLR,,0.03,WeatherDisplay:10.37,2013-07-17 15:16:00,
2013-07-17 09:21:00,57.9,42.8,29.63,WSW,248,0.0,0.0,57,0.00,CLR,,0.03,WeatherDisplay:10.37,2013-07-17 15:21:00,
2013-07-17 09:26:00,57.9,42.8,29.63,WSW,248,0.0,0.0,57,0.00,CLR,,0.03,WeatherDisplay:10.37,2013-07-17 15:26:00,
2013-07-17 09:31:00,57.9,42.8,29.63,SSE,158,0.0,0.0,57,0.00,CLR,,0.03,WeatherDisplay:10.37,2013-07-17 15:31:00,
2013-07-17 09:36:00,57.9,42.8,29.63,WSW,248,0.0,0.0,57,0.00,CLR,,0.03,WeatherDisplay:10.37,2013-07-17 15:36:00,
2013-07-17 09:41:00,57.9,42.8,29.63,SSW,202,0.0,0.0,57,0.00,CLR,,0.03,WeatherDisplay:10.37,2013-07-17 15:41:00,
2013-07-17 09:46:00,57.9,42.8,29.63,SW,225,0.0,0.0,57,0.00,CLR,,0.03,WeatherDisplay:10.37,2013-07-17 15:46:00,
2013-07-17 09:51:00,57.9,42.8,29.63,WSW,248,0.0,0.0,57,0.00,CLR,,0.03,WeatherDisplay:10.37,2013-07-17 15:51:00,
2013-07-17 09:56:00,57.9,42.8,29.63,South,180,0.0,0.0,57,0.00,CLR,,0.03,WeatherDisplay:10.37,2013-07-17 15:56:00,
2013-07-17 10:01:00,57.9,42.8,29.61,WNW,292,0.0,0.0,57,0.00,CLR,,0.03,WeatherDisplay:10.37,2013-07-17 16:01:00,
2013-07-17 10:06:00,57.9,42.8,29.61,WNW,292,0.0,0.0,57,0.00,CLR,,0.03,WeatherDisplay:10.37,2013-07-17 16:06:00,
2013-07-17 10:11:00,57.9,42.8,29.61,SW,225,0.0,0.0,57,0.00,CLR,,0.03,WeatherDisplay:10.37,2013-07-17 16:11:00,
2013-07-17 10:16:00,57.9,42.8,29.61,West,270,0.0,0.0,57,0.00,CLR,,0.03,WeatherDisplay:10.37,2013-07-17 16:16:00,
2013-07-17 10:21:00,57.9,42.8,29.58,WSW,248,0.0,0.0,57,0.00,CLR,,0.03,WeatherDisplay:10.37,2013-07-17 16:21:00,
2013-07-17 10:26:00,57.9,42.8,29.58,SW,225,0.0,0.0,57,0.00,CLR,,0.03,WeatherDisplay:10.37,2013-07-17 16:26:00,
2013-07-17 10:31:00,57.9,42.8,29.58,WSW,248,0.0,0.0,57,0.00,CLR,,0.03,WeatherDisplay:10.37,2013-07-17 16:31:00,
2013-07-17 10:36:00,57.9,42.8,29.58,WSW,248,0.0,0.0,57,0.00,CLR,,0.03,WeatherDisplay:10.37,2013-07-17 16:36:00,
2013-07-17 10:41:00,57.9,42.8,29.60,WSW,248,0.0,0.0,57,0.00,CLR,,0.03,WeatherDisplay:10.37,2013-07-17 16:41:00,
2013-07-17 10:46:00,57.9,42.8,29.60,WSW,248,0.0,0.0,57,0.00,CLR,,0.03,WeatherDisplay:10.37,2013-07-17 16:46:00,
2013-07-17 10:51:00,57.9,42.8,29.60,SW,225,0.0,0.0,57,0.00,CLR,,0.03,WeatherDisplay:10.37,2013-07-17 16:51:00,
2013-07-17 10:56:00,57.9,42.8,29.60,WSW,248,0.0,0.0,57,0.00,CLR,,0.03,WeatherDisplay:10.37,2013-07-17 16:56:00,
2013-07-17 11:01:00,57.9,42.8,29.60,WSW,248,0.0,0.0,57,0.00,CLR,,0.03,WeatherDisplay:10.37,2013-07-17 17:01:00,
2013-07-17 11:06:00,57.9,42.8,29.60,WNW,292,0.0,0.0,57,0.00,CLR,,0.03,WeatherDisplay:10.37,2013-07-17 17:06:00,
2013-07-17 11:11:00,57.9,42.8,29.60,SSW,202,0.0,0.0,57,0.00,CLR,,0.03,WeatherDisplay:10.37,2013-07-17 17:11:00,
2013-07-17 11:16:00,57.9,42.8,29.60,SW,225,0.0,0.0,57,0.00,CLR,,0.03,WeatherDisplay:10.37,2013-07-17 17:16:00,
2013-07-17 11:21:00,57.9,42.8,29.57,WSW,248,0.0,0.0,57,0.00,CLR,,0.03,WeatherDisplay:10.37,2013-07-17 17:21:00,
2013-07-17 11:26:00,57.9,42.8,29.57,SSE,158,0.0,0.1,57,0.00,CLR,,0.03,WeatherDisplay:10.37,2013-07-17 17:26:00,
2013-07-17 11:31:00,57.9,42.8,29.57,East,90,1.2,1.2,57,0.00,CLR,,0.03,WeatherDisplay:10.37,2013-07-17 17:31:00,
2013-07-17 11:36:00,57.9,42.8,29.57,NW,315,0.0,0.2,57,0.00,CLR,,0.03,WeatherDisplay:10.37,2013-07-17 17:36:00,
2013-07-17 11:41:00,57.9,42.8,29.59,NW,315,0.0,0.1,57,0.00,CLR,,0.03,WeatherDisplay:10.37,2013-07-17 17:41:00,
2013-07-17 11:46:00,57.9,42.8,29.59,NE,45,0.0,0.0,57,0.00,CLR,,0.03,WeatherDisplay:10.37,2013-07-17 17:46:00,
2013-07-17 11:51:00,57.9,42.8,29.59,North,0,1.7,1.7,57,0.00,CLR,,0.03,WeatherDisplay:10.37,2013-07-17 17:51:00,
2013-07-17 11:56:00,57.9,42.8,29.59,WSW,248,0.0,0.2,57,0.00,CLR,,0.03,WeatherDisplay:10.37,2013-07-17 17:56:00,
2013-07-17 12:01:00,57.9,42.8,29.58,SW,225,0.0,0.5,57,0.00,CLR,,0.03,WeatherDisplay:10.37,2013-07-17 18:01:00,
2013-07-17 12:06:00,57.9,42.8,29.58,SW,225,0.0,0.5,57,0.00,CLR,,0.03,WeatherDisplay:10.37,2013-07-17 18:06:00,
2013-07-17 12:11:00,57.9,42.8,29.58,SW,225,0.0,0.5,57,0.00,CLR,,0.03,WeatherDisplay:10.37,2013-07-17 18:11:00,
2013-07-17 12:16:00,57.9,42.8,29.58,SSW,202,0.0,0.3,57,0.00,CLR,,0.03,WeatherDisplay:10.37,2013-07-17 18:16:00,
2013-07-17 12:21:00,57.9,42.8,29.58,ENE,68,1.2,1.2,57,0.00,CLR,,0.03,WeatherDisplay:10.37,2013-07-17 18:21:00,
2013-07-17 12:26:00,57.9,42.8,29.58,ESE,112,2.3,2.3,57,0.00,CLR,,0.03,WeatherDisplay:10.37,2013-07-17 18:26:00,
2013-07-17 12:31:00,57.9,42.8,29.58,SSE,158,0.0,0.9,57,0.00,CLR,,0.03,WeatherDisplay:10.37,2013-07-17 18:31:00,
2013-07-17 12:36:00,57.9,42.8,29.58,South,180,2.6,2.6,57,0.00,CLR,,0.03,WeatherDisplay:10.37,2013-07-17 18:36:00,
2013-07-17 12:41:00,57.9,42.8,29.57,SSE,158,0.0,0.9,57,0.00,CLR,,0.03,WeatherDisplay:10.37,2013-07-17 18:41:00,
2013-07-17 12:46:00,57.9,42.8,29.57,WNW,292,0.0,0.6,57,0.00,CLR,,0.03,WeatherDisplay:10.37,2013-07-17 18:46:00,
2013-07-17 12:51:00,57.9,42.8,29.57,WNW,292,0.0,0.0,57,0.00,CLR,,0.03,WeatherDisplay:10.37,2013-07-17 18:51:00,
2013-07-17 12:56:00,57.9,42.8,29.57,NNW,338,0.0,0.0,57,0.00,CLR,,0.03,WeatherDisplay:10.37,2013-07-17 18:56:00,
2013-07-17 13:01:00,57.9,42.8,29.56,WNW,292,0.0,0.1,57,0.00,CLR,,0.03,WeatherDisplay:10.37,2013-07-17 19:01:00,
2013-07-17 13:06:00,57.9,42.8,29.56,WSW,248,0.0,0.1,57,0.00,CLR,,0.03,WeatherDisplay:10.37,2013-07-17 19:06:00,
2013-07-17 13:11:00,57.9,42.8,29.56,WNW,292,0.0,0.1,57,0.00,CLR,,0.03,WeatherDisplay:10.37,2013-07-17 19:11:00,
2013-07-17 13:16:00,57.9,42.8,29.56,SW,225,0.0,0.1,57,0.00,CLR,,0.03,WeatherDisplay:10.37,2013-07-17 19:16:00,
2013-07-17 13:21:00,57.9,42.8,29.55,West,270,0.0,0.0,57,0.00,CLR,,0.03,WeatherDisplay:10.37,2013-07-17 19:21:00,
2013-07-17 13:26:00,57.9,42.8,29.55,South,180,0.0,0.0,57,0.00,CLR,,0.03,WeatherDisplay:10.37,2013-07-17 19:26:00,
2013-07-17 13:31:00,57.9,42.8,29.55,SW,225,0.0,0.0,57,0.00,CLR,,0.03,WeatherDisplay:10.37,2013-07-17 19:31:00,
2013-07-17 13:36:00,57.9,42.8,29.55,SSW,202,0.0,0.0,57,0.00,CLR,,0.03,WeatherDisplay:10.37,2013-07-17 19:36:00,
2013-07-17 13:41:00,57.9,42.8,29.55,East,90,0.0,0.0,57,0.00,CLR,,0.03,WeatherDisplay:10.37,2013-07-17 19:41:00,
2013-07-17 13:46:00,57.9,42.8,29.55,WSW,248,0.0,0.0,57,0.00,CLR,,0.03,WeatherDisplay:10.37,2013-07-17 19:46:00,
2013-07-17 13:51:00,57.9,42.8,29.55,NNE,22,0.0,0.0,57,0.00,CLR,,0.03,WeatherDisplay:10.37,2013-07-17 19:51:00,
2013-07-17 13:56:00,57.9,42.8,29.55,NW,315,0.0,0.0,57,0.00,CLR,,0.03,WeatherDisplay:10.37,2013-07-17 19:56:00,
2013-07-17 14:01:00,57.9,42.8,29.53,WSW,248,0.0,0.0,57,0.00,CLR,,0.03,WeatherDisplay:10.37,2013-07-17 20:01:00,
2013-07-17 14:06:00,57.9,42.8,29.53,SSW,202,0.0,0.0,57,0.00,CLR,,0.03,WeatherDisplay:10.37,2013-07-17 20:06:00,
2013-07-17 14:11:00,57.9,42.8,29.53,WSW,248,0.0,0.3,57,0.00,CLR,,0.03,WeatherDisplay:10.37,2013-07-17 20:11:00,
2013-07-17 14:16:00,57.9,42.8,29.53,ESE,112,1.2,1.2,57,0.00,CLR,,0.03,WeatherDisplay:10.37,2013-07-17 20:16:00,
2013-07-17 14:21:00,57.9,42.8,29.53,ESE,112,3.5,3.5,57,0.00,CLR,,0.03,WeatherDisplay:10.37,2013-07-17 20:21:00,
2013-07-17 14:26:00,57.9,42.8,29.53,SW,225,3.5,3.5,57,0.00,CLR,,0.03,WeatherDisplay:10.37,2013-07-17 20:26:00,
2013-07-17 14:31:00,57.9,42.8,29.53,East,90,2.3,2.3,57,0.00,CLR,,0.03,WeatherDisplay:10.37,2013-07-17 20:31:00,
2013-07-17 14:36:00,57.9,42.8,29.53,WSW,248,1.2,2.2,57,0.00,CLR,,0.03,WeatherDisplay:10.37,2013-07-17 20:36:00,
2013-07-17 14:41:00,57.9,42.8,29.51,WSW,248,0.0,2.0,57,0.00,CLR,,0.03,WeatherDisplay:10.37,2013-07-17 20:41:00,
2013-07-17 14:46:00,57.9,42.8,29.51,WSW,248,0.0,1.2,57,0.00,CLR,,0.03,WeatherDisplay:10.37,2013-07-17 20:46:00,
2013-07-17 14:51:00,57.9,42.8,29.51,East,90,4.6,4.6,57,0.00,CLR,,0.03,WeatherDisplay:10.37,2013-07-17 20:51:00,
2013-07-17 14:56:00,57.9,42.8,29.51,SSW,202,0.0,1.6,57,0.00,CLR,,0.03,WeatherDisplay:10.37,2013-07-17 20:56:00,
2013-07-17 15:01:00,57.9,42.8,29.50,SW,225,0.0,1.2,57,0.00,CLR,,0.03,WeatherDisplay:10.37,2013-07-17 21:01:00,
2013-07-17 15:06:00,57.9,42.8,29.50,South,180,0.0,0.7,57,0.00,CLR,,0.03,WeatherDisplay:10.37,2013-07-17 21:06:00,
2013-07-17 15:11:00,57.9,42.8,29.50,South,180,0.0,0.0,57,0.00,CLR,,0.03,WeatherDisplay:10.37,2013-07-17 21:11:00,
2013-07-17 15:16:00,57.9,42.8,29.50,SW,225,6.9,6.9,57,0.00,CLR,,0.03,WeatherDisplay:10.37,2013-07-17 21:16:00,
2013-07-17 15:21:00,57.9,42.8,29.46,WSW,248,2.3,2.3,57,0.00,CLR,,0.03,WeatherDisplay:10.37,2013-07-17 21:21:00,
2013-07-17 15:26:00,57.9,42.8,29.46,SW,225,0.0,1.6,57,0.00,CLR,,0.03,WeatherDisplay:10.37,2013-07-17 21:26:00,
2013-07-17 15:31:00,57.9,42.8,29.46,SSE,158,1.2,1.2,57,0.00,CLR,,0.03,WeatherDisplay:10.37,2013-07-17 21:31:00,
2013-07-17 15:36:00,57.9,42.8,29.46,WSW,248,0.0,0.0,57,0.00,CLR,,0.03,WeatherDisplay:10.37,2013-07-17 21:36:00,
2013-07-17 15:41:00,57.9,42.8,29.45,WSW,248,0.0,0.0,57,0.00,CLR,,0.03,WeatherDisplay:10.37,2013-07-17 21:41:00,
2013-07-17 15:46:00,57.9,42.8,29.45,WSW,248,0.0,0.0,57,0.00,CLR,,0.03,WeatherDisplay:10.37,2013-07-17 21:46:00,
2013-07-17 15:51:00,57.9,42.8,29.45,South,180,10.4,10.4,57,0.00,CLR,,0.03,WeatherDisplay:10.37,2013-07-17 21:51:00,
2013-07-17 15:56:00,57.9,42.8,29.45,SW,225,8.1,8.1,57,0.00,CLR,,0.03,WeatherDisplay:10.37,2013-07-17 21:56:00,
2013-07-17 16:01:00,57.9,42.8,29.45,ENE,68,5.8,5.8,57,0.00,CLR,,0.03,WeatherDisplay:10.37,2013-07-17 22:01:00,
2013-07-17 16:06:00,57.9,42.8,29.45,SW,225,4.6,4.6,57,0.00,CLR,,0.03,WeatherDisplay:10.37,2013-07-17 22:06:00,
2013-07-17 16:11:00,57.9,42.8,29.45,WSW,248,8.1,8.1,57,0.00,CLR,,0.03,WeatherDisplay:10.37,2013-07-17 22:11:00,
2013-07-17 16:16:00,57.9,42.8,29.45,SSW,202,6.9,6.9,57,0.00,CLR,,0.03,WeatherDisplay:10.37,2013-07-17 22:16:00,
2013-07-17 16:21:00,57.9,42.8,29.42,WSW,248,4.6,4.6,57,0.00,CLR,,0.03,WeatherDisplay:10.37,2013-07-17 22:21:00,
2013-07-17 16:26:00,57.9,42.8,29.42,SE,135,2.3,3.1,57,0.00,CLR,,0.03,WeatherDisplay:10.37,2013-07-17 22:26:00,
2013-07-17 16:31:00,57.9,42.8,29.42,SW,225,4.6,4.6,57,0.00,CLR,,0.03,WeatherDisplay:10.37,2013-07-17 22:31:00,
2013-07-17 16:36:00,57.9,42.8,29.42,SSW,202,4.6,4.6,57,0.00,CLR,,0.03,WeatherDisplay:10.37,2013-07-17 22:36:00,
2013-07-17 16:41:00,57.9,42.8,29.39,SSW,202,4.6,4.6,57,0.00,CLR,,0.03,WeatherDisplay:10.37,2013-07-17 22:41:00,
2013-07-17 16:46:00,57.9,42.8,29.39,SW,225,3.5,3.5,57,0.00,CLR,,0.03,WeatherDisplay:10.37,2013-07-17 22:46:00,
2013-07-17 16:51:00,57.9,42.8,29.39,SSE,158,5.8,5.8,57,0.00,CLR,,0.03,WeatherDisplay:10.37,2013-07-17 22:51:00,
2013-07-17 16:56:00,57.9,42.8,29.39,WSW,248,2.3,2.6,57,0.00,CLR,,0.03,WeatherDisplay:10.37,2013-07-17 22:56:00,
2013-07-17 17:01:00,57.9,42.8,29.45,South,180,3.5,3.5,57,0.00,CLR,,0.03,WeatherDisplay:10.37,2013-07-17 23:01:00,
2013-07-17 17:06:00,57.9,42.8,29.45,SW,225,1.2,2.0,57,0.00,CLR,,0.03,WeatherDisplay:10.37,2013-07-17 23:06:00,
2013-07-17 17:11:00,57.9,42.8,29.45,SSW,202,2.3,2.3,57,0.00,CLR,,0.03,WeatherDisplay:10.37,2013-07-17 23:11:00,
2013-07-17 17:16:00,57.9,42.8,29.45,WSW,248,8.1,8.1,57,0.00,CLR,,0.03,WeatherDisplay:10.37,2013-07-17 23:16:00,
2013-07-17 17:21:00,57.9,42.8,29.47,SSW,202,4.6,4.6,57,0.00,CLR,,0.03,WeatherDisplay:10.37,2013-07-17 23:21:00,
2013-07-17 17:26:00,57.9,42.8,29.47,SSW,202,2.3,2.4,57,0.00,CLR,,0.03,WeatherDisplay:10.37,2013-07-17 23:26:00,
2013-07-17 17:31:00,57.9,42.8,29.47,SW,225,0.0,1.2,57,0.00,CLR,,0.03,WeatherDisplay:10.37,2013-07-17 23:31:00,
2013-07-17 17:36:00,57.9,42.8,29.47,NW,315,0.0,0.0,57,0.00,CLR,,0.03,WeatherDisplay:10.37,2013-07-17 23:36:00,
2013-07-17 17:41:00,57.9,42.8,29.42,North,0,0.0,0.2,57,0.00,CLR,,0.03,WeatherDisplay:10.37,2013-07-17 23:41:00,
2013-07-17 17:46:00,57.9,42.8,29.42,North,0,0.0,0.2,57,0.00,CLR,,0.03,WeatherDisplay:10.37,2013-07-17 23:46:00,
2013-07-17 17:51:00,57.9,42.8,29.42,NNW,338,1.2,1.2,57,0.00,CLR,,0.03,WeatherDisplay:10.37,2013-07-17 23:51:00,
2013-07-17 17:56:00,57.9,42.8,29.42,NNW,338,0.0,0.5,57,0.00,CLR,,0.03,WeatherDisplay:10.37,2013-07-17 23:56:00,
2013-07-17 18:01:00,57.9,42.8,29.44,SSE,158,2.3,2.3,57,0.00,CLR,,0.14,WeatherDisplay:10.37,2013-07-18 00:01:00,
2013-07-17 18:06:00,57.9,42.8,29.44,ENE,68,2.3,2.3,57,0.14,RA,,0.17,WeatherDisplay:10.37,2013-07-18 00:06:00,
2013-07-17 18:11:00,57.9,42.8,29.44,NE,45,0.0,0.8,57,0.14,RA,,0.17,WeatherDisplay:10.37,2013-07-18 00:11:00,
2013-07-17 18:16:00,57.9,42.8,29.44,NNE,22,2.3,2.3,57,0.17,RA,,0.19,WeatherDisplay:10.37,2013-07-18 00:16:00,
2013-07-17 18:21:00,57.9,42.8,29.44,SW,225,2.3,2.3,57,0.25,RA,,0.33,WeatherDisplay:10.37,2013-07-18 00:21:00,
2013-07-17 18:26:00,57.9,42.8,29.44,SSW,202,0.0,1.2,57,0.36,RA,,0.39,WeatherDisplay:10.37,2013-07-18 00:26:00,
2013-07-17 18:31:00,57.9,42.8,29.44,NW,315,2.3,2.3,57,0.36,RA,,0.39,WeatherDisplay:10.37,2013-07-18 00:31:00,
2013-07-17 18:36:00,57.9,42.8,29.44,NNE,22,0.0,0.3,57,0.39,RA,,0.41,WeatherDisplay:10.37,2013-07-18 00:36:00,
2013-07-17 18:41:00,57.9,42.8,29.51,North,0,0.0,0.0,57,0.41,RA,,0.44,WeatherDisplay:10.37,2013-07-18 00:41:00,
2013-07-17 18:46:00,57.9,42.8,29.51,NNW,338,0.0,0.0,57,0.44,RA,,0.47,WeatherDisplay:10.37,2013-07-18 00:46:00,
2013-07-17 18:51:00,57.9,42.8,29.51,North,0,0.0,0.2,57,0.44,RA,,0.47,WeatherDisplay:10.37,2013-07-18 00:51:00,
2013-07-17 18:56:00,57.9,42.8,29.51,North,0,0.0,0.2,57,0.47,RA,,0.50,WeatherDisplay:10.37,2013-07-18 00:56:00,
2013-07-17 19:01:00,57.9,42.8,29.50,North,0,0.0,0.5,57,0.47,RA,,0.50,WeatherDisplay:10.37,2013-07-18 01:01:00,
2013-07-17 19:06:00,57.9,42.8,29.50,NW,315,0.0,0.5,57,0.36,RA,,0.52,WeatherDisplay:10.37,2013-07-18 01:06:00,
2013-07-17 19:11:00,57.9,42.8,29.50,North,0,0.0,0.3,57,0.36,RA,,0.52,WeatherDisplay:10.37,2013-07-18 01:11:00,
2013-07-17 19:16:00,57.9,42.8,29.50,North,0,1.3,1.3,57,0.33,,,0.52,WeatherDisplay:10.37,2013-07-18 01:16:00,
2013-07-17 19:21:00,57.9,42.8,29.47,ENE,68,2.3,2.3,57,0.25,CLR,,0.52,WeatherDisplay:10.37,2013-07-18 01:21:00,
2013-07-17 19:26:00,57.9,42.8,29.47,ENE,68,2.3,2.3,57,0.19,CLR,,0.52,WeatherDisplay:10.37,2013-07-18 01:26:00,
2013-07-17 19:31:00,57.9,42.8,29.47,ENE,68,2.3,2.3,57,0.14,CLR,,0.52,WeatherDisplay:10.37,2013-07-18 01:31:00,
2013-07-17 19:36:00,57.9,42.8,29.47,ENE,68,2.3,2.3,57,0.14,CLR,,0.52,WeatherDisplay:10.37,2013-07-18 01:36:00,
2013-07-17 19:41:00,57.9,42.8,29.47,ENE,68,2.3,0.0,57,0.14,RA,,0.52,WeatherDisplay:10.37,2013-07-18 01:41:00,
2013-07-17 19:46:00,57.9,42.8,29.47,ENE,68,2.3,0.0,57,0.11,RA,,0.52,WeatherDisplay:10.37,2013-07-18 01:46:00,
2013-07-17 19:51:00,57.9,42.8,29.47,ENE,68,2.3,0.0,57,0.08,CLR,,0.52,WeatherDisplay:10.37,2013-07-18 01:51:00,
2013-07-17 19:56:00,57.9,42.8,29.47,ENE,68,2.3,0.0,57,0.06,CLR,,0.52,WeatherDisplay:10.37,2013-07-18 01:56:00,
2013-07-17 20:01:00,57.9,42.8,29.47,ENE,68,2.3,0.0,57,0.06,CLR,,0.52,WeatherDisplay:10.37,2013-07-18 02:01:00,
2013-07-17 20:06:00,57.9,42.8,29.47,ENE,68,2.3,0.0,57,0.03,CLR,,0.52,WeatherDisplay:10.37,2013-07-18 02:06:00,
2013-07-17 20:11:00,57.9,42.8,29.47,ENE,68,2.3,0.0,57,0.03,CLR,,0.52,WeatherDisplay:10.37,2013-07-18 02:11:00,
2013-07-17 20:16:00,57.9,42.8,29.47,ENE,68,2.3,0.0,57,0.03,CLR,,0.52,WeatherDisplay:10.37,2013-07-18 02:16:00,
2013-07-17 20:25:00,57.9,42.8,29.47,ENE,68,2.3,0.0,57,0.00,CLR,,0.52,WeatherDisplay:10.37,2013-07-18 02:25:00,
2013-07-17 20:30:00,57.9,42.8,29.47,ENE,68,2.3,0.0,57,0.00,CLR,,0.52,WeatherDisplay:10.37,2013-07-18 02:30:00,
2013-07-17 20:35:00,57.9,42.8,29.47,ENE,68,2.3,0.0,57,0.00,CLR,,0.52,WeatherDisplay:10.37,2013-07-18 02:35:00,
2013-07-17 20:40:00,57.9,42.8,29.47,ENE,68,2.3,0.0,57,0.00,CLR,,0.52,WeatherDisplay:10.37,2013-07-18 02:40:00,
2013-07-17 20:45:00,57.9,42.8,29.47,ENE,68,2.3,0.0,57,0.00,CLR,,0.52,WeatherDisplay:10.37,2013-07-18 02:45:00,
2013-07-17 20:50:00,57.9,42.8,29.47,ENE,68,2.3,0.0,57,0.00,CLR,,0.52,WeatherDisplay:10.37,2013-07-18 02:50:00,
2013-07-17 20:55:00,57.9,42.8,29.47,ENE,68,2.3,0.0,57,0.00,CLR,,0.52,WeatherDisplay:10.37,2013-07-18 02:55:00,
2013-07-17 21:00:00,57.9,42.8,29.47,ENE,68,2.3,0.0,57,0.00,CLR,,0.52,WeatherDisplay:10.37,2013-07-18 03:00:00,
2013-07-17 21:05:00,57.9,42.8,29.47,ENE,68,2.3,0.0,57,0.00,CLR,,0.52,WeatherDisplay:10.37,2013-07-18 03:05:00,
2013-07-17 21:10:00,57.9,42.8,29.47,ENE,68,2.3,0.0,57,0.00,CLR,,0.52,WeatherDisplay:10.37,2013-07-18 03:10:00,
2013-07-17 21:15:00,57.9,42.8,29.47,ENE,68,2.3,0.0,57,0.00,CLR,,0.52,WeatherDisplay:10.37,2013-07-18 03:15:00,
2013-07-17 21:19:00,60.6,57.1,29.96,SW,225,0.7,3.1,88,0.00,,,0.00,Cumulus v1.9.3,2013-07-18 03:19:00,
2013-07-17 21:24:00,60.6,57.1,29.97,SW,225,0.0,3.1,88,0.00,,,0.00,Cumulus v1.9.3,2013-07-18 03:24:00,
2013-07-17 21:25:00,60.6,57.1,29.96,SW,225,0.0,2.2,88,0.00,,,0.00,Cumulus v1.9.3,2013-07-18 03:25:00,
2013-07-17 21:29:00,60.4,56.9,29.95,SW,225,0.0,0.0,88,0.00,,,0.00,Cumulus v1.9.3,2013-07-18 03:29:00,
2013-07-17 21:30:00,60.4,56.9,29.95,SW,225,0.0,0.0,88,0.00,,,0.00,Cumulus v1.9.3,2013-07-18 03:30:00,
2013-07-17 21:34:00,60.3,57.0,29.95,SW,225,0.7,0.7,89,0.00,,,0.00,Cumulus v1.9.3,2013-07-18 03:34:00,
2013-07-17 21:35:00,60.3,57.0,29.95,SW,225,0.7,0.7,89,0.00,,,0.00,Cumulus v1.9.3,2013-07-18 03:35:00,
2013-07-17 21:36:00,60.3,57.0,29.95,SW,225,0.0,0.7,89,0.00,,,0.00,Cumulus v1.9.3,2013-07-18 03:36:00,
2013-07-17 21:40:00,60.3,56.7,29.95,SW,225,0.0,0.7,88,0.00,,,0.00,Cumulus v1.9.3,2013-07-18 03:40:00,
2013-07-17 21:41:00,60.3,56.7,29.95,SW,225,0.7,0.7,88,0.00,,,0.00,Cumulus v1.9.3,2013-07-18 03:41:00,
2013-07-17 21:45:00,60.3,57.0,29.95,SW,225,0.0,0.7,89,0.00,,,0.00,Cumulus v1.9.3,2013-07-18 03:45:00,
2013-07-17 21:47:00,60.3,57.0,29.95,SW,225,0.0,0.7,89,0.00,,,0.00,Cumulus v1.9.3,2013-07-18 03:47:00,
2013-07-17 21:50:00,60.1,56.8,29.95,SW,225,0.0,0.7,89,0.00,,,0.00,Cumulus v1.9.3,2013-07-18 03:50:00,
2013-07-17 21:51:00,60.1,56.8,29.95,SW,225,0.0,0.7,89,0.00,,,0.00,Cumulus v1.9.3,2013-07-18 03:51:00,
2013-07-17 21:52:00,60.1,56.8,29.95,West,270,1.6,1.6,89,0.00,,,0.00,Cumulus v1.9.3,2013-07-18 03:52:00,
2013-07-17 21:55:00,60.1,56.8,29.95,SW,225,0.0,1.6,89,0.00,,,0.00,Cumulus v1.9.3,2013-07-18 03:55:00,
2013-07-17 21:56:00,60.1,56.8,29.95,SW,225,0.0,1.6,89,0.00,,,0.00,Cumulus v1.9.3,2013-07-18 03:56:00,
2013-07-17 21:57:00,60.1,56.8,29.95,SW,225,0.0,1.6,89,0.00,,,0.00,Cumulus v1.9.3,2013-07-18 03:57:00,
2013-07-17 21:58:00,60.1,56.8,29.95,SW,225,0.0,1.6,89,0.00,,,0.00,Cumulus v1.9.3,2013-07-18 03:58:00,
2013-07-17 22:01:00,60.1,56.8,29.95,SW,225,0.0,1.6,89,0.00,,,0.00,Cumulus v1.9.3,2013-07-18 04:01:00,
2013-07-17 22:02:00,57.9,42.8,29.47,ENE,68,2.3,0.0,57,0.00,CLR,,0.52,WeatherDisplay:10.37,2013-07-18 04:02:00,
2013-07-17 22:04:00,57.9,42.8,29.47,ENE,68,2.3,0.0,57,0.00,CLR,,0.52,WeatherDisplay:10.37,2013-07-18 04:04:00,
2013-07-17 22:06:00,59.7,56.5,29.95,SW,225,0.0,0.0,89,0.00,,,0.00,Cumulus v1.9.3,2013-07-18 04:06:00,
2013-07-17 22:07:00,59.7,56.5,29.95,SW,225,0.0,0.0,89,0.00,,,0.00,Cumulus v1.9.3,2013-07-18 04:07:00,
2013-07-17 22:11:00,59.5,56.3,29.95,SW,225,0.0,0.7,89,0.00,,,0.00,Cumulus v1.9.3,2013-07-18 04:11:00,
2013-07-17 22:12:00,59.5,56.3,29.96,West,270,0.0,0.7,89,0.00,,,0.00,Cumulus v1.9.3,2013-07-18 04:12:00,
2013-07-17 22:13:00,59.4,56.1,29.96,SW,225,0.0,0.7,89,0.00,,,0.00,Cumulus v1.9.3,2013-07-18 04:13:00,
2013-07-17 22:16:00,59.4,56.1,29.95,SW,225,0.0,0.7,89,0.00,,,0.00,Cumulus v1.9.3,2013-07-18 04:16:00,
2013-07-17 22:17:00,59.4,56.1,29.95,SW,225,0.0,0.7,89,0.00,,,0.00,Cumulus v1.9.3,2013-07-18 04:17:00,
2013-07-17 22:18:00,59.4,56.1,29.95,SW,225,0.0,0.7,89,0.00,,,0.00,Cumulus v1.9.3,2013-07-18 04:18:00,
2013-07-17 22:21:00,59.4,56.1,29.95,SW,225,0.0,0.7,89,0.00,,,0.00,Cumulus v1.9.3,2013-07-18 04:21:00,
2013-07-17 22:22:00,59.4,56.1,29.96,SW,225,0.0,0.7,89,0.00,,,0.00,Cumulus v1.9.3,2013-07-18 04:22:00,
2013-07-17 22:23:00,59.4,56.1,29.95,SW,225,0.0,0.0,89,0.00,,,0.00,Cumulus v1.9.3,2013-07-18 04:23:00,
2013-07-17 22:24:00,59.0,56.1,29.95,SW,225,0.0,0.0,90,0.00,,,0.00,Cumulus v1.9.3,2013-07-18 04:24:00,
2013-07-17 22:26:00,58.8,55.9,29.95,SW,225,0.0,0.0,90,0.00,,,0.00,Cumulus v1.9.3,2013-07-18 04:26:00,
2013-07-17 22:27:00,58.8,55.9,29.96,SW,225,0.0,0.0,90,0.00,,,0.00,Cumulus v1.9.3,2013-07-18 04:27:00,
2013-07-17 22:28:00,58.8,55.9,29.95,SW,225,0.0,0.0,90,0.00,,,0.00,Cumulus v1.9.3,2013-07-18 04:28:00,
2013-07-17 22:29:00,58.8,55.9,29.96,SW,225,0.0,0.0,90,0.00,,,0.00,Cumulus v1.9.3,2013-07-18 04:29:00,
2013-07-17 22:30:00,58.8,55.9,29.95,SW,225,0.0,0.0,90,0.00,,,0.00,Cumulus v1.9.3,2013-07-18 04:30:00,
2013-07-17 22:31:00,58.8,55.9,29.95,SW,225,0.0,0.0,90,0.00,,,0.00,Cumulus v1.9.3,2013-07-18 04:31:00,
2013-07-17 22:33:00,58.6,55.7,29.96,SW,225,0.0,0.0,90,0.00,,,0.00,Cumulus v1.9.3,2013-07-18 04:33:00,
2013-07-17 22:35:00,58.6,55.7,29.95,SW,225,0.0,0.0,90,0.00,,,0.00,Cumulus v1.9.3,2013-07-18 04:35:00,
2013-07-17 22:36:00,58.6,55.7,29.95,SW,225,0.0,0.0,90,0.00,,,0.00,Cumulus v1.9.3,2013-07-18 04:36:00,
2013-07-17 22:37:00,58.6,55.7,29.95,SW,225,0.0,0.0,90,0.00,,,0.00,Cumulus v1.9.3,2013-07-18 04:37:00,
2013-07-17 22:39:00,58.5,55.5,29.95,SW,225,0.0,0.0,90,0.00,,,0.00,Cumulus v1.9.3,2013-07-18 04:39:00,
2013-07-17 22:41:00,58.5,55.9,29.95,SW,225,0.0,0.0,91,0.00,,,0.00,Cumulus v1.9.3,2013-07-18 04:41:00,
2013-07-17 22:42:00,58.5,55.9,29.95,SW,225,0.0,0.0,91,0.00,,,0.00,Cumulus v1.9.3,2013-07-18 04:42:00,
2013-07-17 22:44:00,58.5,55.9,29.96,SW,225,0.0,0.0,91,0.00,,,0.00,Cumulus v1.9.3,2013-07-18 04:44:00,
2013-07-17 22:47:00,58.3,55.7,29.95,SW,225,0.0,0.0,91,0.00,,,0.00,Cumulus v1.9.3,2013-07-18 04:47:00,
2013-07-17 22:48:00,58.3,55.7,29.95,SW,225,0.0,0.0,91,0.00,,,0.00,Cumulus v1.9.3,2013-07-18 04:48:00,
2013-07-17 22:49:00,58.3,55.7,29.96,SW,225,0.0,0.0,91,0.00,,,0.00,Cumulus v1.9.3,2013-07-18 04:49:00,
2013-07-17 22:52:00,58.3,55.7,29.96,SW,225,0.7,0.7,91,0.00,,,0.00,Cumulus v1.9.3,2013-07-18 04:52:00,
2013-07-17 22:53:00,58.5,55.9,29.96,SW,225,1.6,1.6,91,0.00,,,0.00,Cumulus v1.9.3,2013-07-18 04:53:00,
2013-07-17 22:54:00,58.5,56.2,29.95,SW,225,0.7,1.6,92,0.00,,,0.00,Cumulus v1.9.3,2013-07-18 04:54:00,
2013-07-17 22:55:00,58.5,56.2,29.95,SW,225,0.0,1.6,92,0.00,,,0.00,Cumulus v1.9.3,2013-07-18 04:55:00,
2013-07-17 22:57:00,58.5,56.2,29.96,SW,225,0.0,1.6,92,0.00,,,0.00,Cumulus v1.9.3,2013-07-18 04:57:00,
2013-07-17 22:58:00,58.5,56.2,29.96,SW,225,0.0,1.6,92,0.00,,,0.00,Cumulus v1.9.3,2013-07-18 04:58:00,
2013-07-17 23:00:00,58.5,56.2,29.96,SW,225,0.0,1.6,92,0.00,,,0.00,Cumulus v1.9.3,2013-07-18 05:00:00,
2013-07-17 23:02:00,58.5,56.2,29.96,SW,225,0.0,1.6,92,0.00,,,0.00,Cumulus v1.9.3,2013-07-18 05:02:00,
2013-07-17 23:04:00,58.5,56.2,29.95,SW,225,0.0,0.7,92,0.00,,,0.00,Cumulus v1.9.3,2013-07-18 05:04:00,
2013-07-17 23:05:00,58.5,56.2,29.96,SW,225,0.0,0.0,92,0.00,,,0.00,Cumulus v1.9.3,2013-07-18 05:05:00,
2013-07-17 23:07:00,58.5,56.2,29.96,SW,225,0.0,0.0,92,0.00,,,0.00,Cumulus v1.9.3,2013-07-18 05:07:00,
2013-07-17 23:09:00,58.3,56.0,29.95,SW,225,0.0,0.0,92,0.00,,,0.00,Cumulus v1.9.3,2013-07-18 05:09:00,
2013-07-17 23:10:00,58.3,56.0,29.96,SW,225,0.0,0.0,92,0.00,,,0.00,Cumulus v1.9.3,2013-07-18 05:10:00,
2013-07-17 23:11:00,58.3,56.0,29.96,SW,225,0.0,0.0,92,0.00,,,0.00,Cumulus v1.9.3,2013-07-18 05:11:00,
2013-07-17 23:13:00,58.3,56.0,29.96,SW,225,0.0,0.0,92,0.00,,,0.00,Cumulus v1.9.3,2013-07-18 05:13:00,
2013-07-17 23:14:00,58.1,55.8,29.95,SW,225,0.0,0.0,92,0.00,,,0.00,Cumulus v1.9.3,2013-07-18 05:14:00,
2013-07-17 23:15:00,58.3,56.0,29.95,SW,225,0.0,0.0,92,0.00,,,0.00,Cumulus v1.9.3,2013-07-18 05:15:00,
2013-07-17 23:16:00,58.3,56.0,29.95,SW,225,0.0,0.0,92,0.00,,,0.00,Cumulus v1.9.3,2013-07-18 05:16:00,
2013-07-17 23:18:00,58.1,55.8,29.95,SW,225,0.0,0.7,92,0.00,,,0.00,Cumulus v1.9.3,2013-07-18 05:18:00,
2013-07-17 23:19:00,58.1,55.8,29.96,SW,225,0.0,0.7,92,0.00,,,0.00,Cumulus v1.9.3,2013-07-18 05:19:00,
2013-07-17 23:20:00,58.1,55.8,29.95,SW,225,0.0,0.7,92,0.00,,,0.00,Cumulus v1.9.3,2013-07-18 05:20:00,
2013-07-17 23:22:00,58.1,55.8,29.95,SW,225,0.0,0.7,92,0.00,,,0.00,Cumulus v1.9.3,2013-07-18 05:22:00,
2013-07-17 23:23:00,57.9,55.6,29.96,SW,225,0.0,0.7,92,0.00,,,0.00,Cumulus v1.9.3,2013-07-18 05:23:00,
2013-07-17 23:24:00,57.9,55.6,29.95,SW,225,0.0,0.7,92,0.00,,,0.00,Cumulus v1.9.3,2013-07-18 05:24:00,
2013-07-17 23:26:00,57.9,55.6,29.96,SW,225,0.0,0.7,92,0.00,,,0.00,Cumulus v1.9.3,2013-07-18 05:26:00,
2013-07-17 23:27:00,57.9,55.6,29.96,SW,225,0.0,0.7,92,0.00,,,0.00,Cumulus v1.9.3,2013-07-18 05:27:00,
2013-07-17 23:28:00,57.9,55.6,29.96,SW,225,0.0,0.0,92,0.00,,,0.00,Cumulus v1.9.3,2013-07-18 05:28:00,
2013-07-17 23:29:00,57.9,55.6,29.96,SW,225,0.0,0.0,92,0.00,,,0.00,Cumulus v1.9.3,2013-07-18 05:29:00,
2013-07-17 23:31:00,57.7,55.4,29.96,SW,225,0.0,0.0,92,0.00,,,0.00,Cumulus v1.9.3,2013-07-18 05:31:00,
2013-07-17 23:32:00,57.7,55.4,29.96,SW,225,0.0,0.0,92,0.00,,,0.00,Cumulus v1.9.3,2013-07-18 05:32:00,
2013-07-17 23:33:00,57.7,55.4,29.96,SW,225,0.0,0.0,92,0.00,,,0.00,Cumulus v1.9.3,2013-07-18 05:33:00,
2013-07-17 23:35:00,57.7,55.4,29.96,SW,225,0.0,0.0,92,0.00,,,0.00,Cumulus v1.9.3,2013-07-18 05:35:00,
2013-07-17 23:36:00,57.7,55.4,29.96,SW,225,0.0,0.0,92,0.00,,,0.00,Cumulus v1.9.3,2013-07-18 05:36:00,
2013-07-17 23:38:00,57.7,55.4,29.96,SW,225,0.0,0.0,92,0.00,,,0.00,Cumulus v1.9.3,2013-07-18 05:38:00,
2013-07-17 23:39:00,57.6,55.3,29.96,SW,225,0.0,0.0,92,0.00,,,0.00,Cumulus v1.9.3,2013-07-18 05:39:00,
2013-07-17 23:40:00,57.6,55.3,29.97,SW,225,0.0,0.0,92,0.00,,,0.00,Cumulus v1.9.3,2013-07-18 05:40:00,
2013-07-17 23:41:00,57.6,55.3,29.96,SW,225,0.0,0.0,92,0.00,,,0.00,Cumulus v1.9.3,2013-07-18 05:41:00,
2013-07-17 23:43:00,57.6,55.3,29.96,SW,225,0.0,0.0,92,0.00,,,0.00,Cumulus v1.9.3,2013-07-18 05:43:00,
2013-07-17 23:44:00,57.6,55.3,29.96,SW,225,0.0,0.0,92,0.00,,,0.00,Cumulus v1.9.3,2013-07-18 05:44:00,
2013-07-17 23:45:00,57.6,55.6,29.97,SW,225,0.0,0.0,93,0.00,,,0.00,Cumulus v1.9.3,2013-07-18 05:45:00,
2013-07-17 23:46:00,57.4,55.4,29.97,SW,225,0.0,0.0,93,0.00,,,0.00,Cumulus v1.9.3,2013-07-18 05:46:00,
2013-07-17 23:48:00,57.4,55.4,29.96,SW,225,0.0,0.7,93,0.00,,,0.00,Cumulus v1.9.3,2013-07-18 05:48:00,
2013-07-17 23:49:00,57.4,55.4,29.97,SW,225,0.0,0.7,93,0.00,,,0.00,Cumulus v1.9.3,2013-07-18 05:49:00,
2013-07-17 23:50:00,57.4,55.4,29.96,WNW,292,0.0,0.7,93,0.00,,,0.00,Cumulus v1.9.3,2013-07-18 05:50:00,
2013-07-17 23:51:00,57.4,55.4,29.96,SW,225,0.0,0.7,93,0.00,,,0.00,Cumulus v1.9.3,2013-07-18 05:51:00,
2013-07-17 23:52:00,57.4,55.4,29.96,SW,225,0.0,0.7,93,0.00,,,0.00,Cumulus v1.9.3,2013-07-18 05:52:00,
2013-07-17 23:53:00,57.4,55.4,29.96,SW,225,0.0,0.7,93,0.00,,,0.00,Cumulus v1.9.3,2013-07-18 05:53:00,
2013-07-17 23:54:00,57.4,55.4,29.97,SW,225,0.0,0.7,93,0.00,,,0.00,Cumulus v1.9.3,2013-07-18 05:54:00,
2013-07-17 23:56:00,57.4,55.4,29.96,SW,225,0.0,0.7,93,0.00,,,0.00,Cumulus v1.9.3,2013-07-18 05:56:00,
2013-07-17 23:57:00,57.4,55.4,29.96,West,270,0.0,0.7,93,0.00,,,0.00,Cumulus v1.9.3,2013-07-18 05:57:00,